Kirkland, WA (98034)

10:47 PM PDT on March 22, 2017 (GMT -0700)
MD3422 | | Change Station
Active Advisory: Flood Warning

Elev 262 ft 47.71 °N, 122.19 °W | Updated 7 days ago

Partly Cloudy
Partly Cloudy
48.0 °F
Feels Like 48.0 °F
N
3.0
Wind Variable Wind from SSE

Today
High -- | Low -- °F
--% Chance of Precip.
Yesterday
High -- | Low -- °F
Precip. -- in
Pressure 30.04 in
Visibility 10.0 miles
Clouds Clear
Dew Point 47.0 °F
Humidity 98%
Rainfall 0.01 in
Snow Depth Not available.
7:06 AM 7:25 PM
Waning Crescent, 26% visible
METAR KPAE 230453Z AUTO 15009KT 10SM CLR 06/03 A3003 RMK AO2 SLP171 T00610028
Pressure 30.04 in
Visibility 10.0 miles
Clouds Clear
Dew Point 47.0 °F
Humidity 98%
Rainfall 0.01 in
Snow Depth Not available.
7:06 AM 7:25 PM
Waning Crescent, 26% visible
METAR KPAE 230453Z AUTO 15009KT 10SM CLR 06/03 A3003 RMK AO2 SLP171 T00610028

Get Your Daily Forecast Email!

Thanks for signing up!

Be on the lookout for a verification email in your inbox.

You'll start receiving severe weather alerts in your inbox..

×

10-Day Weather Forecast

Almanac

Astronomy

Mar. 22, 2017 Rise Set
Actual Time
Civil Twilight
Nautical Twilight
Astronomical Twilight
Moon
Length of Visible Light
Length of Day
Tomorrow will be .
, % of the Moon is Illuminated

Today's Extremes

State Highs State Lows

Community

WunderPhotos

Upload Photos

1,962,540 photos uploaded!

WunderBlog® & News

Nearby

Air Quality

  Air Quality AQ Index Pollutant
Not available.

Snow Depth

Station Depth Elevation

Earthquake Activity

City Distance Mag. Time & Date
Minimum magnitude displayed is 2.5.

Earthquake Activity

City Distance Mag. Time & Date
Minimum magnitude displayed is 2.5.

Coastal Water Temperatures

Place Temperature

Stations

Nearby Weather Stations

Station Location Temp. Windchill Dew Point Humidity Wind Precip. Elev Updated Type
                   

Watches & Warnings

Flood Warning
Issued: 3:10 PM PDT Mar. 22, 2017 – National Weather Service

The Flood Warning continues for
the White River at r street
* from 6 am Monday until Friday morning.
* At 2:45 PM Wednesday the flow was 5280 cfs.
* Flood flow is 5500 cfs.
* Minor flooding is forecast.
* Forecast... the river will remain near the flood flow of 5500 cfs
through Friday afternoon.
* Impact... at 5500 cfs, river flooding is likely to occur near low
bank areas around and downstream of the Stewart street bridge in
the city of Sumner.


Lat... Lon 4721 12214 4724 12219 4719 12223 4724 12230 4732 12226
      4732 12214